Regional Weather Roundup
Issued by NWS Bismarck, ND

Home | Current Version | Previous Version | Text Only | Print | Product List | Glossary On
Versions: 1 2 3 4 5 6 7 8 9 10 11 12 13 14 15 16 17 18 19 20 21 22 23 24 25 26 27 28 29 30 31 32 33 34 35 36 37 38 39 40 41 42 43 44 45 46 47 48 49 50
000
ASUS43 KBIS 232210
RWRBIS

NWR BROADCAST TEXT
NATIONAL WEATHER SERVICE BISMARCK ND
500 PM CDT SUN APR 23 2017

NOTE: "FAIR" INDICATES FEW OR NO CLOUDS BELOW 12,000 FEET WITH NO
SIGNIFICANT WEATHER AND/OR OBSTRUCTIONS TO VISIBILITY.


CITY           SKY/WX    TMP DP  RH WIND       PRES   REMARKS
WILLISTON      CLOUDY    34  27  75 E23G29    29.92F
MINOT          CLOUDY    31  27  85 E18G24    29.99F WCI  19
MINOT AFB      CLOUDY    32  28  86 E24       29.97F WCI  19
BISMARCK       CLOUDY    41  34  76 E18       29.90F
DICKINSON      CLOUDY    37  31  78 E18       29.81F
GARRISON         N/A     30  27  88 E23G31    29.94F WCI  17
HETTINGER ARPT PTSUNNY   47  36  65 NE16      29.79F
JAMESTOWN      CLOUDY    34  30  85 E23G32    29.93F
HAZEN          CLOUDY    36  30  80 E16       29.93F
LINTON           N/A     41  39  93 NE21G30   29.85F
MANDAN         CLOUDY    37  34  87 E21G26    29.88F
STANLEY        CLOUDY    30  30 100 E23G30    29.95F WCI  17
TIOGA          CLOUDY    30  32 100 E26G35    29.92F WCI  16
WATFORD CITY   CLOUDY    32  32 100 E15G23    29.89F
$$

CITY           SKY/WX    TMP DP  RH WIND       PRES   REMARKS
GRAND FORKS    LGT SNOW  32  29  88 NE17G24   30.08F VSB 1
GRAND FORKS AF MIX PCPN  30  28  90 E13       30.08F FOG
DEVILS LAKE    SNOW      28  26  92 E17G28    30.04F VSB 1/2 WCI  16
FARGO          PTSUNNY   44  34  67 E20G28    29.96F
CAVALIER       FAIR      37  18  44 E15       30.10F
GRAFTON        FAIR      34  25  69 SE12      30.12F
GWINNER        CLEAR     52  41  66 MISG      29.87F
LANGDON        FAIR      37  18  44 E18       30.05F
ROLLA          CLOUDY    34  16  47 E17G24    30.03F
$$

CITY           SKY/WX    TMP DP  RH WIND       PRES   REMARKS
ABERDEEN       FAIR      70  31  23 S8G20     29.77F
MOBRIDGE       FAIR      69  39  33 E13       29.68F
BUFFALO          N/A     53  39  59 NE16G24   29.68F
RAPID CITY     FAIR      70  42  36 NE13      29.68F
GLASGOW        PTSUNNY   43  32  65 E22G31    29.77F
SIDNEY         CLOUDY    37  30  75 E14       29.86F
WOLF POINT     CLOUDY    41  31  67 E22G30    29.82F
GLENDIVE       FAIR      45  32  60 E18       29.79F
MILES CITY     PTSUNNY   57  41  55 NE16      29.69F
BAKER          PTSUNNY   43  33  68 E20G28    29.76F
$$

CITY           SKY/WX    TMP DP  RH WIND       PRES   REMARKS
BILLINGS       PTSUNNY   66  34  30 SW8       29.62F
GREAT FALLS    FAIR      49  41  74 VRB3      29.71F
REGINA         CLOUDY    39  12  33 E25G35    29.92F
ESTEVAN        LGT SNOW  34  25  69 E24G30    29.97F DRFTSNOW
$$





USA.gov is the U.S. government's official web portal to all federal, state and local government web resources and services.